SHT755 EGLL-EGCC

Flight info

Callsign SHT755
Flight time 1h 17m
Altitude 18000
Route ULTIB T420 ELVOS
Aircraft A20N/M-SDE2E3FGHIRWXY/LB1

Departure

Time 2026-05-05 15:52
Airport London Heathrow Airport (EGLL)

Arrival

Time 2026-05-05 17:09
Airport Manchester Airport (EGCC)
Time Latitude Longitude Altitude Speed Heading
2026-05-05 15:22 51.47181 -0.48215 81 ft 0 kts 90°
2026-05-05 15:37 51.47181 -0.48220 81 ft 2 kts 90°
2026-05-05 15:38 51.47181 -0.48245 81 ft 2 kts 90°
2026-05-05 15:38 51.47181 -0.48269 81 ft 2 kts 90°
2026-05-05 15:38 51.47181 -0.48293 81 ft 2 kts 90°
2026-05-05 15:38 51.47181 -0.48317 81 ft 2 kts 92°
2026-05-05 15:39 51.47185 -0.48340 81 ft 2 kts 124°
2026-05-05 15:39 51.47196 -0.48357 81 ft 2 kts 150°
2026-05-05 15:39 51.47210 -0.48366 81 ft 1 kts 175°
2026-05-05 15:39 51.47216 -0.48366 81 ft 1 kts 183°
2026-05-05 15:40 51.47218 -0.48365 81 ft 0 kts 181°
2026-05-05 15:42 51.47216 -0.48365 81 ft 0 kts 180°
2026-05-05 15:42 51.47207 -0.48365 81 ft 1 kts 180°
2026-05-05 15:43 51.47195 -0.48365 81 ft 1 kts 180°
2026-05-05 15:43 51.47182 -0.48365 81 ft 2 kts 180°
2026-05-05 15:43 51.47166 -0.48365 81 ft 2 kts 179°
2026-05-05 15:43 51.47150 -0.48364 81 ft 2 kts 179°
2026-05-05 15:44 51.47133 -0.48364 81 ft 2 kts 179°
2026-05-05 15:44 51.47104 -0.48362 81 ft 10 kts 179°
2026-05-05 15:44 51.47018 -0.48359 81 ft 12 kts 179°
2026-05-05 15:44 51.46922 -0.48358 81 ft 14 kts 180°
2026-05-05 15:45 51.46836 -0.48358 81 ft 6 kts 180°
2026-05-05 15:45 51.46824 -0.48358 81 ft 0 kts 179°
2026-05-05 15:46 51.46792 -0.48357 81 ft 10 kts 179°
2026-05-05 15:46 51.46728 -0.48447 80 ft 14 kts 223°
2026-05-05 15:46 51.46622 -0.48468 80 ft 12 kts 180°
2026-05-05 15:46 51.46592 -0.48468 80 ft 0 kts 180°
2026-05-05 15:49 51.46591 -0.48468 80 ft 0 kts 180°
2026-05-05 15:49 51.46560 -0.48468 80 ft 8 kts 180°
2026-05-05 15:50 51.46485 -0.48455 80 ft 10 kts 137°
2026-05-05 15:50 51.46478 -0.48396 80 ft 0 kts 90°
2026-05-05 15:51 51.46478 -0.48371 80 ft 11 kts 90°
2026-05-05 15:51 51.46482 -0.47771 81 ft 92 kts 89°
2026-05-05 15:51 51.46487 -0.46353 85 ft 156 kts 90°
2026-05-05 15:51 51.46457 -0.44506 604 ft 166 kts 93°
2026-05-05 15:52 51.46360 -0.42676 1350 ft 166 kts 93°
2026-05-05 15:52 51.46532 -0.40896 2035 ft 164 kts 57°
2026-05-05 15:52 51.47250 -0.39426 2658 ft 171 kts 49°
2026-05-05 15:52 51.48055 -0.37996 3327 ft 176 kts 43°
2026-05-05 15:53 51.48905 -0.36603 4011 ft 181 kts 46°
2026-05-05 15:53 51.49815 -0.35107 4636 ft 192 kts 43°
2026-05-05 15:53 51.50730 -0.33493 5311 ft 201 kts 50°
2026-05-05 15:53 51.51611 -0.31743 5991 ft 208 kts 49°
2026-05-05 15:54 51.52539 -0.29733 6201 ft 244 kts 59°
2026-05-05 15:54 51.53197 -0.27099 6115 ft 266 kts 74°
2026-05-05 15:54 51.53644 -0.24185 6106 ft 268 kts 74°
2026-05-05 15:54 51.54133 -0.21323 6104 ft 267 kts 69°
2026-05-05 15:55 51.55108 -0.18829 6120 ft 265 kts 40°
2026-05-05 15:55 51.56746 -0.17451 6177 ft 265 kts 12°
2026-05-05 15:55 51.58569 -0.17529 6145 ft 266 kts 343°
2026-05-05 15:55 51.60171 -0.18998 6058 ft 269 kts 320°
2026-05-05 15:56 51.61562 -0.21066 6003 ft 270 kts 319°
2026-05-05 15:56 51.62985 -0.23122 6269 ft 281 kts 320°
2026-05-05 15:56 51.64442 -0.25216 7262 ft 281 kts 320°
2026-05-05 15:56 51.65902 -0.27290 8312 ft 278 kts 322°
2026-05-05 15:57 51.67441 -0.29130 9122 ft 281 kts 328°
2026-05-05 15:57 51.69108 -0.30829 9904 ft 287 kts 330°
2026-05-05 15:57 51.70813 -0.32501 10584 ft 295 kts 330°
2026-05-05 15:57 51.72628 -0.34258 11130 ft 309 kts 330°
2026-05-05 15:58 51.74482 -0.36049 11859 ft 314 kts 330°
2026-05-05 15:58 51.76351 -0.37855 12611 ft 317 kts 330°
2026-05-05 15:58 51.78273 -0.39715 13360 ft 322 kts 330°
2026-05-05 15:58 51.80197 -0.41579 14099 ft 325 kts 329°
2026-05-05 15:59 51.82128 -0.43449 14814 ft 329 kts 329°
2026-05-05 15:59 51.84093 -0.45354 15538 ft 332 kts 329°
2026-05-05 15:59 51.86097 -0.47300 16265 ft 336 kts 329°
2026-05-05 15:59 51.88104 -0.49251 16968 ft 340 kts 329°
2026-05-05 16:00 51.90128 -0.51222 17592 ft 343 kts 329°
2026-05-05 16:00 51.92171 -0.53212 17944 ft 345 kts 329°
2026-05-05 16:00 51.94251 -0.55241 18013 ft 344 kts 329°
2026-05-05 16:00 51.96286 -0.57226 18037 ft 343 kts 329°
2026-05-05 16:01 51.98313 -0.59205 18050 ft 342 kts 329°
2026-05-05 16:01 52.00378 -0.61225 18036 ft 342 kts 329°
2026-05-05 16:01 52.02394 -0.63200 17997 ft 341 kts 329°
2026-05-05 16:01 52.04458 -0.65224 17979 ft 341 kts 328°
2026-05-05 16:02 52.06485 -0.67213 17971 ft 341 kts 328°
2026-05-05 16:02 52.08539 -0.69236 17969 ft 341 kts 328°
2026-05-05 16:02 52.10530 -0.71196 17970 ft 340 kts 327°
2026-05-05 16:02 52.12559 -0.73191 17971 ft 340 kts 327°
2026-05-05 16:03 52.14586 -0.75189 17971 ft 339 kts 327°
2026-05-05 16:03 52.16597 -0.77174 17971 ft 339 kts 327°
2026-05-05 16:03 52.18645 -0.79199 17971 ft 339 kts 327°
2026-05-05 16:03 52.20637 -0.81175 17971 ft 339 kts 327°
2026-05-05 16:04 52.22672 -0.83195 17971 ft 339 kts 327°
2026-05-05 16:04 52.24696 -0.85203 17972 ft 339 kts 327°
2026-05-05 16:04 52.26714 -0.87206 17974 ft 339 kts 327°
2026-05-05 16:04 52.28724 -0.89203 17974 ft 339 kts 327°
2026-05-05 16:05 52.30755 -0.91223 17974 ft 339 kts 327°
2026-05-05 16:05 52.32771 -0.93226 17974 ft 339 kts 327°
2026-05-05 16:05 52.34801 -0.95246 17974 ft 339 kts 327°
2026-05-05 16:05 52.36796 -0.97233 17974 ft 339 kts 327°
2026-05-05 16:06 52.38823 -0.99257 17975 ft 339 kts 327°
2026-05-05 16:06 52.40838 -1.01272 17975 ft 339 kts 327°
2026-05-05 16:06 52.42892 -1.03328 17976 ft 339 kts 327°
2026-05-05 16:06 52.44894 -1.05334 17977 ft 339 kts 327°
2026-05-05 16:07 52.46926 -1.07373 17978 ft 339 kts 327°
2026-05-05 16:07 52.48929 -1.09384 17980 ft 339 kts 327°
2026-05-05 16:07 52.50934 -1.11399 17982 ft 339 kts 327°
2026-05-05 16:07 52.52943 -1.13421 17985 ft 339 kts 327°
2026-05-05 16:08 52.54947 -1.15439 17987 ft 339 kts 327°
2026-05-05 16:08 52.56957 -1.17465 17988 ft 338 kts 327°
2026-05-05 16:08 52.58968 -1.19493 17989 ft 338 kts 327°
2026-05-05 16:08 52.60989 -1.21534 17989 ft 338 kts 327°
2026-05-05 16:09 52.62983 -1.23550 17990 ft 338 kts 327°
2026-05-05 16:09 52.64994 -1.25586 17991 ft 338 kts 327°
2026-05-05 16:09 52.66990 -1.27609 17992 ft 338 kts 327°
2026-05-05 16:09 52.68992 -1.29639 17993 ft 339 kts 327°
2026-05-05 16:10 52.71024 -1.31700 17994 ft 338 kts 327°
2026-05-05 16:10 52.73038 -1.33747 17997 ft 338 kts 327°
2026-05-05 16:10 52.75032 -1.35775 17999 ft 339 kts 327°
2026-05-05 16:10 52.77061 -1.37840 18001 ft 339 kts 327°
2026-05-05 16:11 52.79044 -1.39861 18002 ft 339 kts 327°
2026-05-05 16:11 52.85070 -1.46024 17994 ft 338 kts 327°
2026-05-05 16:12 52.85891 -1.46864 17994 ft 338 kts 327°
2026-05-05 16:52 52.87106 -1.48112 17994 ft 338 kts 327°
2026-05-05 16:52 52.89095 -1.50154 17803 ft 337 kts 327°
2026-05-05 16:53 52.91083 -1.52196 17573 ft 335 kts 326°
2026-05-05 16:53 52.93071 -1.54242 17341 ft 334 kts 326°
2026-05-05 16:53 52.95036 -1.56268 17079 ft 332 kts 326°
2026-05-05 16:53 52.96983 -1.58277 16648 ft 332 kts 326°
2026-05-05 16:54 52.98983 -1.60345 16049 ft 336 kts 326°
2026-05-05 16:54 53.00991 -1.62424 15361 ft 342 kts 327°
2026-05-05 16:54 53.03011 -1.64515 14647 ft 347 kts 327°
2026-05-05 16:54 53.05002 -1.66744 14223 ft 341 kts 319°
2026-05-05 16:55 53.06692 -1.69399 13821 ft 334 kts 310°
2026-05-05 16:55 53.08212 -1.72296 13427 ft 329 kts 309°
2026-05-05 16:55 53.09669 -1.75164 13043 ft 324 kts 309°
2026-05-05 16:55 53.11124 -1.78023 12665 ft 319 kts 309°
2026-05-05 16:56 53.12509 -1.80727 12310 ft 314 kts 309°
2026-05-05 16:56 53.13947 -1.83527 11944 ft 309 kts 309°
2026-05-05 16:56 53.15320 -1.86200 11595 ft 304 kts 309°
2026-05-05 16:56 53.16686 -1.88862 11251 ft 300 kts 309°
2026-05-05 16:57 53.18019 -1.91464 10918 ft 295 kts 309°
2026-05-05 16:57 53.19350 -1.94064 10586 ft 290 kts 310°
2026-05-05 16:57 53.20665 -1.96637 10260 ft 286 kts 310°
2026-05-05 16:57 53.21948 -1.99146 9943 ft 282 kts 310°
2026-05-05 16:58 53.23190 -2.01626 9629 ft 277 kts 305°
2026-05-05 16:58 53.23891 -2.04556 9299 ft 272 kts 274°
2026-05-05 16:58 53.23780 -2.07660 9018 ft 268 kts 265°
2026-05-05 16:58 53.23629 -2.10732 8745 ft 264 kts 266°
2026-05-05 16:59 53.23505 -2.13785 8472 ft 259 kts 266°
2026-05-05 16:59 53.23176 -2.16683 8199 ft 256 kts 254°
2026-05-05 16:59 53.22615 -2.19478 7921 ft 248 kts 251°
2026-05-05 16:59 53.22020 -2.22194 7652 ft 252 kts 250°
2026-05-05 17:00 53.21410 -2.24933 7379 ft 252 kts 250°
2026-05-05 17:00 53.20811 -2.27605 7088 ft 241 kts 250°
2026-05-05 17:00 53.20232 -2.30159 6799 ft 228 kts 251°
2026-05-05 17:00 53.19679 -2.32582 6507 ft 218 kts 250°
2026-05-05 17:01 53.19154 -2.34862 6219 ft 208 kts 250°
2026-05-05 17:01 53.18647 -2.37053 5967 ft 199 kts 251°
2026-05-05 17:01 53.18151 -2.39178 5598 ft 196 kts 251°
2026-05-05 17:01 53.17654 -2.41300 5213 ft 194 kts 251°
2026-05-05 17:02 53.17166 -2.43368 4839 ft 193 kts 251°
2026-05-05 17:02 53.16687 -2.45450 4455 ft 192 kts 257°
2026-05-05 17:02 53.16673 -2.47601 4046 ft 186 kts 296°
2026-05-05 17:02 53.17349 -2.49394 3691 ft 184 kts 312°
2026-05-05 17:03 53.18196 -2.51027 3325 ft 187 kts 315°
2026-05-05 17:03 53.19070 -2.52622 3049 ft 185 kts 315°
2026-05-05 17:03 53.19924 -2.54147 3006 ft 180 kts 319°
2026-05-05 17:03 53.20815 -2.55091 2994 ft 178 kts 350°
2026-05-05 17:04 53.22000 -2.54933 3004 ft 168 kts 22°
2026-05-05 17:04 53.23045 -2.54089 3016 ft 166 kts 29°
2026-05-05 17:04 53.24044 -2.53135 3022 ft 165 kts 31°
2026-05-05 17:04 53.24917 -2.51908 3019 ft 166 kts 51°
2026-05-05 17:05 53.25545 -2.50375 3076 ft 159 kts 56°
2026-05-05 17:05 53.26073 -2.48772 3029 ft 157 kts 62°
2026-05-05 17:05 53.26471 -2.47269 3000 ft 158 kts 66°
2026-05-05 17:05 53.26756 -2.45497 2811 ft 159 kts 74°
2026-05-05 17:06 53.26987 -2.43692 2588 ft 156 kts 64°
2026-05-05 17:06 53.27603 -2.42265 2406 ft 154 kts 40°
2026-05-05 17:06 53.28405 -2.41106 2158 ft 150 kts 38°
2026-05-05 17:06 53.29204 -2.39961 1803 ft 155 kts 40°
2026-05-05 17:07 53.29922 -2.38652 1557 ft 143 kts 50°
2026-05-05 17:07 53.30513 -2.37409 1309 ft 133 kts 48°
2026-05-05 17:07 53.31101 -2.36219 1145 ft 133 kts 47°
2026-05-05 17:07 53.31707 -2.35040 1106 ft 134 kts 47°
2026-05-05 17:08 53.32308 -2.33827 1064 ft 137 kts 48°
2026-05-05 17:08 53.32920 -2.32562 877 ft 139 kts 49°
2026-05-05 17:08 53.33538 -2.31304 633 ft 141 kts 49°
2026-05-05 17:08 53.34164 -2.30002 416 ft 142 kts 50°
2026-05-05 17:09 53.34788 -2.28704 259 ft 139 kts 49°
2026-05-05 17:09 53.35345 -2.27564 246 ft 104 kts 52°
2026-05-05 17:09 53.35689 -2.26847 263 ft 51 kts 52°
2026-05-05 17:09 53.35849 -2.26692 266 ft 12 kts 352°
2026-05-05 17:10 53.35901 -2.26705 266 ft 3 kts 351°
2026-05-05 17:10 53.35904 -2.26706 266 ft 0 kts 351°
2026-05-05 17:11 53.35905 -2.26706 266 ft 0 kts 351°
2026-05-05 17:11 53.35914 -2.26709 266 ft 0 kts 345°
2026-05-05 17:11 53.35917 -2.26711 266 ft 0 kts 337°
2026-05-05 17:12 53.35923 -2.26763 266 ft 16 kts 258°
2026-05-05 17:13 53.35856 -2.26933 263 ft 18 kts 238°
2026-05-05 17:13 53.35783 -2.27124 258 ft 18 kts 233°
2026-05-05 17:13 53.35697 -2.27302 254 ft 20 kts 231°
2026-05-05 17:13 53.35621 -2.27479 249 ft 16 kts 261°
2026-05-05 17:14 53.35695 -2.27625 246 ft 18 kts 325°
2026-05-05 17:14 53.35804 -2.27722 244 ft 18 kts 315°
2026-05-05 17:14 53.35904 -2.27847 242 ft 19 kts
2026-05-05 17:14 53.36012 -2.27939 240 ft 19 kts 313°
2026-05-05 17:15 53.36125 -2.28041 237 ft 20 kts
2026-05-05 17:15 53.36244 -2.28150 233 ft 21 kts 314°
2026-05-05 17:15 53.36353 -2.28333 228 ft 23 kts 315°
2026-05-05 17:15 53.36470 -2.28527 224 ft 24 kts 315°
2026-05-05 17:16 53.36581 -2.28736 223 ft 23 kts 300°
2026-05-05 17:16 53.36675 -2.28945 223 ft 22 kts 329°
2026-05-05 17:16 53.36795 -2.29024 224 ft 14 kts 14°
2026-05-05 17:16 53.36855 -2.28949 223 ft 5 kts 96°
2026-05-05 17:17 53.36831 -2.28897 223 ft 0 kts 133°